Regional Weather Roundup
Issued by NWS Jackson, KY

Home | Current Version | Previous Version | Text Only | Print | Product List | Glossary Off
Versions: 1 2 3 4 5 6 7 8 9 10 11 12 13 14 15 16 17 18 19 20 21 22 23 24 25 26 27 28 29 30 31 32 33 34 35 36 37 38 39 40 41 42 43 44 45 46 47 48 49 50

000
ASUS43 KJKL 271310
RWRJKL

EAST KENTUCKY HOURLY WEATHER ROUNDUP
NATIONAL WEATHER SERVICE JACKSON KY
900 AM EDT FRI MAR 27 2015

NOTE: "FAIR" INDICATES FEW OR NO CLOUDS BELOW 12,000 FEET WITH
NO SIGNIFICANT WEATHER AND/OR OBSTRUCTIONS TO VISIBILITY.

* THESE REPORTS ARE NOT UNDER NWS QUALITY CONTROL AND MAY NOT
  REPORT WEATHER SUCH AS PRECIPITATION AND FOG.

KYZ079-080-083-085-087-088-110-112-115-119-120-271400
...EASTERN KENTUCKY...

CITY           SKY/WX    TMP DP  RH WIND       PRES   REMARKS
JACKSON        CLOUDY    37  33  85 VRB5      29.91R WCI  33
LONDON         CLOUDY    38  31  76 N8        29.93R WCI  32
SOMERSET*      CLOUDY    36  32  87 N5        29.97R WCI  32
MONTICELLO*    PTSUNNY   38  34  85 N6        29.98R WCI  33
MIDDLESBORO*   CLOUDY    40  33  77 N5        29.91R
BLACK MTN*       N/A     27  27 100 N6          N/A  WCI  20
PIKEVILLE APT* CLOUDY    36  30  80 N7        29.90R WCI  30
BIG SANDY*     CLOUDY    36  31  82 NE9G16    29.92R WCI  29
MOREHEAD APT*  PTSUNNY   34  25  69 N5G13     29.97S WCI  30
$$

KYZ035-036-041-042-044-050-067-078-099-271400
...CENTRAL KENTUCKY...

CITY           SKY/WX    TMP DP  RH WIND       PRES   REMARKS
MT STERLING*   PTSUNNY   34  30  86 NE5       29.97S WCI  30
FLEMING/MASON* SUNNY     34  23  64 N13       29.98R WCI  25
DANVILLE*      SUNNY     34  32  93 NE6       29.96S WCI  29
RICHMOND*      CLOUDY    36  30  80 N8        29.95S WCI  29
LEXINGTON      SUNNY     35  26  69 N9        29.96S WCI  28
FRANKFORT      SUNNY     35  26  69 N8        29.97R WCI  29
$$

KYZ091>093-OHZ055-061-077-WVZ005-015-034-035-042-271400
...SOUTHERN OHIO/WEST VIRGINIA...

CITY           SKY/WX    TMP DP  RH WIND       PRES   REMARKS
COVINGTON      MOSUNNY   33  24  69 N9        29.98F WCI  25
COLUMBUS       PTSUNNY   31  24  75 N7        29.95R WCI  24
DAYTON         MOSUNNY   32  25  75 NW13      29.99R WCI  22
WILMINGTON     SUNNY     32  23  69 N9        29.96S WCI  24
HUNTINGTON     PTSUNNY   34  24  67 N12       29.94R WCI  25
CHARLESTON     CLOUDY    35  24  64 NW12G17   29.91R WCI  27
PINEVILLE*     CLOUDY    38  34  87 MISG      29.91R
BECKLEY        CLOUDY    33  30  88 N13       29.82R WCI  24
BLUEFIELD      LGT RAIN  35  31  85 N5        29.80R VSB 1/2 WCI  31
$$

VAZ002-007-008-TNZ017-027-036-066-071-271400
...SOUTHWEST VIRGINIA/EAST TENNESSEE...

CITY           SKY/WX    TMP DP  RH WIND       PRES   REMARKS
WISE*          CLOUDY    34  34 100 N8        29.84R FOG     WCI  27
JONESVILLE*    CLOUDY    39  34  81 N3        29.90R
ABINGDON*      CLOUDY    40  36  87 N5        29.83R
BRISTOL        CLOUDY    41  37  86 N5        29.85R
KNOXVILLE      CLOUDY    42  37  82 N13G20    29.88R
OAK RIDGE      CLOUDY    44  35  70 VRB3      29.91R
CROSSVILLE     PTSUNNY   36  30  79 N8        29.92R WCI  30
NASHVILLE      MOSUNNY   38  34  85 NW6       30.01R WCI  33
$$

...KEY TO REMARKS...
VSB - VISIBILITY IN MILES
WCI - WIND CHILL INDEX
HX  - HEAT INDEX

$$


USA.gov is the U.S. government's official web portal to all federal, state and local government web resources and services.